FW1542 Weather Reports


Display with metric or nautical units.
time (UTC)temp
F
wind
direction
speed
MPH
gust
MPH
rain 1hr
in
rain 24hr
in
rain mn
in
humidity
%
barometer
mb
20220525043006 80 38 2.0 8.0 0.00 0.00 0.00 71 1006.0
20220525041603 80 154 0.0 8.0 0.00 0.00 0.00 71 1005.1
20220525040013 81 138 5.0 16.0 0.00 0.00 0.00 70 1004.1
20220525034517 81 136 8.0 17.0 0.00 0.00 0.00 69 1003.6
20220525033107 82 106 6.0 11.0 0.00 0.00 0.00 67 1003.2
20220525031503 82 143 6.0 15.0 0.00 0.00 0.00 67 1003.0
20220525030103 82 151 6.0 12.0 0.00 0.00 0.00 65 1002.7
20220525024508 82 150 4.0 17.0 0.00 0.00 0.00 64 1002.3
20220525023003 82 133 11.0 20.0 0.00 0.00 0.00 62 1001.6
20220525021503 83 136 9.0 20.0 0.00 0.00 0.00 61 1002.2
20220525020115 83 148 7.0 18.0 0.00 0.00 0.00 60 1002.4
20220525014604 84 130 7.0 16.0 0.00 0.00 0.00 58 1002.6
20220525013105 84 144 4.0 22.0 0.00 0.00 0.00 57 1002.5
20220525011503 84 163 11.0 21.0 0.00 0.00 0.00 57 1002.6
20220525010117 84 153 6.0 13.0 0.00 0.00 0.00 58 1001.8
20220525004510 85 148 9.0 19.0 0.00 0.00 0.00 57 1001.8
20220525003107 85 164 6.0 13.0 0.00 0.00 0.00 58 1001.6
20220525001603 85 149 5.0 11.0 0.00 0.00 0.00 58 1001.8
20220525000107 85 157 5.0 13.0 0.00 0.00 0.00 58 1002.3
20220524234504 85 186 8.0 19.0 0.00 0.01 0.00 57 1002.2
20220524233006 86 237 7.0 15.0 0.00 0.01 0.00 57 1002.7
20220524231609 86 213 3.0 14.0 0.00 0.01 0.00 57 1002.6
20220524230106 86 204 5.0 12.0 0.00 0.01 0.00 57 1003.0
20220524224508 86 163 3.0 10.0 0.00 0.02 0.00 57 1003.3
20220524223104 86 213 4.0 16.0 0.00 0.02 0.00 56 1003.3
20220524221503 87 184 5.0 16.0 0.00 0.02 0.00 55 1003.4
20220524220009 87 232 8.0 15.0 0.00 0.02 0.00 53 1003.3
20220524214508 89 229 6.0 16.0 0.00 0.06 0.00 49 1003.6
20220524213105 91 191 3.0 11.0 0.00 0.06 0.00 47 1003.8
20220524211508 89 192 3.0 18.0 0.00 0.06 0.00 50 1004.2
20220524210009 89 138 6.0 12.0 0.00 0.06 0.00 50 1004.6
20220524204504 88 154 8.0 14.0 0.00 0.06 0.00 51 1004.7
20220524203115 87 178 5.0 16.0 0.00 0.06 0.00 53 1005.0
20220524201509 87 136 5.0 11.0 0.00 0.06 0.00 54 1005.1
20220524200103 86 115 7.0 15.0 0.00 0.06 0.00 55 1005.4
20220524194514 86 202 9.0 18.0 0.00 0.06 0.00 54 1005.8
20220524193102 85 207 7.0 15.0 0.00 0.06 0.00 56 1006.0
20220524191513 84 184 5.0 13.0 0.00 0.06 0.00 55 1006.3
20220524190104 84 136 5.0 14.0 0.00 0.06 0.00 58 1006.5
20220524184504 84 128 7.0 15.0 0.00 0.06 0.00 58 1006.8
20220524183005 83 221 5.0 13.0 0.00 0.06 0.00 58 1006.8
20220524181617 82 187 6.0 13.0 0.00 0.06 0.00 60 1007.0
20220524180009 81 165 6.0 12.0 0.00 0.06 0.00 63 1006.9
20220524174503 80 153 3.0 14.0 0.00 0.06 0.00 64 1006.9
20220524173106 81 160 6.0 16.0 0.00 0.06 0.00 62 1006.9
20220524171604 81 177 4.0 9.0 0.00 0.06 0.00 63 1006.9
20220524170004 80 186 4.0 15.0 0.00 0.06 0.00 65 1007.0
20220524164605 81 210 5.0 10.0 0.00 0.06 0.00 63 1007.1
20220524163003 80 159 2.0 9.0 0.00 0.06 0.00 65 1007.5
20220524161508 79 196 7.0 14.0 0.00 0.06 0.00 65 1007.9
20220524160003 78 109 4.0 12.0 0.00 0.06 0.00 69 1008.1
20220524154604 77 120 4.0 12.0 0.00 0.06 0.00 70 1008.1
20220524153003 76 215 4.0 12.0 0.00 0.06 0.00 70 1008.2
20220524151503 76 157 2.0 8.0 0.00 0.06 0.00 71 1008.2
20220524150016 75 194 2.0 8.0 0.00 0.06 0.00 72 1008.1
20220524144612 74 179 2.0 7.0 0.00 0.06 0.00 73 1008.1
20220524143103 73 140 4.0 8.0 0.00 0.06 0.00 77 1008.2
20220524141605 72 140 5.0 9.0 0.00 0.06 0.00 81 1008.2
20220524140014 71 145 3.0 5.0 0.00 0.06 0.00 85 1008.2
20220524134606 70 134 1.0 4.0 0.00 0.06 0.00 88 1008.4
20220524133006 69 50 1.0 3.0 0.00 0.06 0.00 90 1008.1
20220524131617 69 50 1.0 2.0 0.00 0.06 0.00 90 1007.9
20220524130103 69 138 0.0 0.0 0.00 0.06 0.00 90 1007.6
20220524124504 68 138 0.0 0.0 0.00 0.06 0.00 90 1007.6
20220524123004 68 138 0.0 1.0 0.00 0.06 0.00 89 1007.3
20220524121509 68 138 0.0 0.0 0.00 0.06 0.00 88 1006.9
20220524120102 69 138 0.0 1.0 0.00 0.06 0.00 88 1007.0
20220524114507 69 138 0.0 2.0 0.00 0.06 0.00 87 1006.8
20220524113004 70 138 0.0 3.0 0.00 0.06 0.00 86 1006.8
20220524111611 70 144 2.0 7.0 0.00 0.06 0.00 86 1006.9
20220524110004 70 175 7.0 18.0 0.00 0.06 0.00 88 1007.1
20220524104628 71 144 4.0 8.0 0.00 0.06 0.00 93 1007.1
20220524103003 71 165 1.0 8.0 0.00 0.06 0.00 93 1006.8
20220524101609 71 165 3.0 7.0 0.00 0.06 0.00 93 1006.6
20220524100103 71 101 2.0 6.0 0.00 0.06 0.00 92 1006.4
20220524094503 71 106 3.0 8.0 0.00 0.06 0.00 91 1006.8
20220524093105 71 105 3.0 9.0 0.00 0.06 0.00 91 1007.0
20220524091607 72 113 4.0 8.0 0.00 0.06 0.00 91 1007.8
20220524090002 72 138 2.0 8.0 0.00 0.06 0.00 91 1008.9
20220524084505 71 173 2.0 7.0 0.00 0.06 0.00 91 1009.4
20220524083104 72 178 1.0 3.0 0.00 0.06 0.00 90 1009.4
20220524081613 72 172 0.0 3.0 0.00 0.06 0.00 90 1009.7
20220524080004 72 84 0.0 2.0 0.00 0.06 0.00 89 1009.4
20220524074615 72 84 0.0 1.0 0.00 0.06 0.00 89 1009.6
20220524073004 72 84 0.0 4.0 0.00 0.06 0.00 88 1009.6
20220524071607 72 93 1.0 4.0 0.00 0.06 0.00 88 1009.7
20220524070009 72 65 1.0 4.0 0.00 0.06 0.00 89 1009.4
20220524064605 72 74 1.0 9.0 0.00 0.06 0.00 88 1009.3
20220524063004 72 74 3.0 6.0 0.00 0.06 0.00 88 1009.2
20220524061604 72 78 2.0 8.0 0.00 0.06 0.00 88 1009.4
20220524060007 72 51 2.0 4.0 0.00 0.06 0.00 88 1009.8
20220524054604 72 59 1.0 4.0 0.00 0.06 0.00 88 1010.2
20220524053003 72 49 1.0 3.0 0.00 0.06 0.00 89 1010.6
20220524051509 72 345 0.0 1.0 0.00 0.06 0.00 89 1011.3
20220524050105 72 344 0.0 2.0 0.00 0.06 0.00 89 1011.6
20220524044503 72 345 0.0 2.0 0.00 0.06 0.06 89 1011.2